Weather History for Stanley, ND

Change the Weather History Date:

Friday, March 15, 2013

  Actual Average (KMOT) Record (KMOT)
Temperature  
Mean Temperature 7 °F 28 °F  
Max Temperature 21 °F 36 °F 64 °F (2012)
Min Temperature -7 °F 19 °F -27 °F (1906)
Degree Days  
Heating Degree Days 58 37  
Month to date heating degree days 607  
Since 1 July heating degree days 7183  
Cooling Degree Days 0 0  
Month to date cooling degree days 0  
Year to date cooling degree days 0  
Moisture  
Dew Point 6 °F    
Average Humidity 89    
Maximum Humidity 100    
Minimum Humidity 78    
Precipitation  
Precipitation 0.45 in 0.03 in 0.20 in (1987)
Month to date precipitation 0.33  
Year to date precipitation 1.24  
Sea Level Pressure  
Sea Level Pressure 30.03 in    
Wind  
Wind Speed 13 mph (ENE)    
Max Wind Speed 24 mph    
Max Gust Speed 32 mph    
Visibility 8 miles    
Events Snow    
T = Trace of Precipitation, MM = Missing Value Source: NWS Daily Summary

Daily Weather History Graph

Daily Weather History Graph

Search for Another Location

Airport:

Trip Planner

Search our weather history database for the weather conditions in past years. The results will help you decide how hot, cold, wet, or windy it might be!

Date:

Astronomy

Mar. 15, 2013 Rise Set
Actual Time 8:02 AM CDT 7:55 PM CDT
Civil Twilight 7:31 AM CDT 8:26 PM CDT
Nautical Twilight 6:54 AM CDT 9:03 PM CDT
Astronomical Twilight 6:17 AM CDT 9:40 PM CDT
Moon 9:33 AM CDT (3/15) No Moon Set
Length of Visible Light 12h 55m
Length of Day
11h 53m
Waxing Crescent, 15% of the Moon is Illuminated
Mar 15
Waxing Crescent
Mar 19
First Quarter
Mar 27
Full
Apr 2
Last Quarter
Apr 10
New

Hourly Weather History & Observations

Time (CDT) Temp. Windchill Dew Point Humidity Pressure Visibility Wind Dir Wind Speed Gust Speed Precip Events Conditions
12:15 AM 21.2 °F 9.5 °F 19.4 °F 93% 30.08 in 10.0 mi ENE 11.5 mph 18.4 mph N/A Snow Light Snow
12:35 AM 21.2 °F 8.9 °F 19.4 °F 93% 30.07 in 10.0 mi ENE 12.7 mph 19.6 mph N/A Snow Light Snow
12:55 AM 19.4 °F 5.5 °F 19.4 °F 100% 30.07 in 10.0 mi ENE 15.0 mph 18.4 mph 0.01 in Snow Light Snow
1:15 AM 19.4 °F 7.2 °F 19.4 °F 100% 30.06 in 6.0 mi East 11.5 mph - 0.02 in Snow Light Snow
1:35 AM 19.4 °F 7.2 °F 19.4 °F 100% 30.05 in 10.0 mi East 11.5 mph - 0.05 in Snow Light Snow
1:55 AM 19.4 °F 8.6 °F 19.4 °F 100% 30.06 in 5.0 mi ENE 9.2 mph - 0.07 in Snow Light Snow
2:15 AM 19.4 °F 6.0 °F 19.4 °F 100% 30.06 in 3.0 mi East 13.8 mph 19.6 mph 0.01 in Snow Light Snow
2:35 AM 19.4 °F 5.5 °F 19.4 °F 100% 30.06 in 2.5 mi ESE 15.0 mph - 0.03 in Snow Light Snow
2:55 AM 19.4 °F 3.2 °F 17.6 °F 93% 30.04 in 1.5 mi ESE 20.7 mph 25.3 mph 0.09 in Snow Light Snow
3:15 AM 17.6 °F 2.7 °F 17.6 °F 100% 30.04 in 5.0 mi ESE 16.1 mph 21.9 mph N/A Snow Light Snow
3:35 AM 17.6 °F 0.9 °F 17.6 °F 100% 30.04 in 10.0 mi ESE 20.7 mph 26.5 mph N/A Snow Light Snow
4:15 AM 17.6 °F 2.7 °F 17.6 °F 100% 30.03 in 10.0 mi East 16.1 mph - N/A   Overcast
4:35 AM 17.6 °F 2.7 °F 15.8 °F 93% 30.02 in 10.0 mi East 16.1 mph 21.9 mph N/A   Overcast
4:55 AM 17.6 °F 2.7 °F 17.6 °F 100% 30.02 in 10.0 mi East 16.1 mph - N/A   Overcast
5:15 AM 17.6 °F 2.2 °F 17.6 °F 100% 30.00 in 10.0 mi East 17.3 mph 24.2 mph N/A Snow Light Snow
5:35 AM 17.6 °F 4.3 °F 15.8 °F 93% 30.03 in 10.0 mi East 12.7 mph - N/A Snow Light Snow
5:55 AM 17.6 °F 3.2 °F 15.8 °F 93% 30.02 in 6.0 mi East 15.0 mph 18.4 mph 0.02 in Snow Light Snow
6:15 AM 15.8 °F 0.9 °F 15.8 °F 100% 30.01 in 9.0 mi East 15.0 mph 21.9 mph N/A Snow Light Snow
6:35 AM 15.8 °F -1.5 °F 15.8 °F 100% 30.00 in 7.0 mi East 20.7 mph 25.3 mph N/A Snow Light Snow
7:15 AM 14.0 °F -3.4 °F 10.4 °F 86% 29.99 in 4.0 mi ESE 19.6 mph 28.8 mph N/A Snow Light Snow
7:35 AM 14.0 °F -3.9 °F 10.4 °F 86% 29.99 in 10.0 mi ESE 20.7 mph - N/A   Overcast
7:55 AM 14.0 °F -4.3 °F 10.4 °F 86% 29.98 in 9.0 mi East 21.9 mph - N/A   Overcast
8:15 AM 10.4 °F -8.6 °F 8.6 °F 92% 29.98 in 8.0 mi East 20.7 mph 25.3 mph N/A   Overcast
8:35 AM 10.4 °F -8.6 °F 8.6 °F 92% 29.96 in 3.0 mi East 20.7 mph 25.3 mph 0.01 in Snow Light Snow
8:55 AM 10.4 °F -8.2 °F 8.6 °F 92% 29.95 in 4.0 mi East 19.6 mph 26.5 mph 0.01 in Snow Light Snow
9:15 AM 10.4 °F -9.9 °F 8.6 °F 92% 29.93 in 2.5 mi East 24.2 mph 32.2 mph N/A Snow Light Snow
9:35 AM 10.4 °F -7.7 °F 8.6 °F 92% 29.96 in 4.0 mi East 18.4 mph 28.8 mph N/A Snow Light Snow
11:15 AM 8.6 °F -6.3 °F 5.0 °F 85% 30.00 in 10.0 mi East 11.5 mph - N/A Snow Light Snow
11:35 AM 8.6 °F -7.0 °F 5.0 °F 85% 30.00 in 10.0 mi ENE 12.7 mph 17.3 mph 0.01 in Snow Light Snow
11:55 AM 8.6 °F -8.9 °F 5.0 °F 85% 29.97 in 10.0 mi East 16.1 mph 20.7 mph 0.01 in Snow Light Snow
12:15 PM 8.6 °F -11.9 °F 5.0 °F 85% 29.94 in 2.5 mi East 23.0 mph 28.8 mph N/A Snow Light Snow
12:35 PM 8.6 °F -10.0 °F 5.0 °F 85% 29.95 in 4.0 mi East 18.4 mph - N/A Snow Light Snow
12:55 PM 8.6 °F -9.5 °F 5.0 °F 85% 29.97 in 10.0 mi East 17.3 mph - N/A   Overcast
1:15 PM 8.6 °F -8.3 °F 5.0 °F 85% 29.97 in 6.0 mi East 15.0 mph 23.0 mph N/A Snow Light Snow
1:35 PM 8.6 °F -7.0 °F 5.0 °F 85% 29.98 in 10.0 mi East 12.7 mph 21.9 mph N/A Snow Light Snow
1:55 PM 8.6 °F -8.3 °F 5.0 °F 85% 29.98 in 10.0 mi ENE 15.0 mph 20.7 mph N/A   Mostly Cloudy
2:15 PM 8.6 °F -8.3 °F 5.0 °F 85% 29.98 in 3.0 mi East 15.0 mph 21.9 mph N/A Snow Light Snow
2:35 PM 8.6 °F -7.0 °F 5.0 °F 85% 29.97 in 1.5 mi ENE 12.7 mph - 0.04 in Snow Light Snow
2:55 PM 8.6 °F -7.0 °F 5.0 °F 85% 29.97 in 2.0 mi ENE 12.7 mph - 0.06 in Snow Light Snow
3:15 PM 6.8 °F -10.0 °F 3.2 °F 85% 29.98 in 5.0 mi ENE 13.8 mph 20.7 mph N/A Snow Light Snow
3:35 PM 6.8 °F -9.3 °F 3.2 °F 85% 29.97 in 10.0 mi East 12.7 mph - 0.01 in Snow Light Snow
3:55 PM 6.8 °F -8.6 °F 3.2 °F 85% 29.97 in 9.0 mi East 11.5 mph 18.4 mph 0.02 in Snow Light Snow
4:15 PM 6.8 °F -7.8 °F 3.2 °F 85% 29.98 in 10.0 mi ENE 10.4 mph - N/A Snow Light Snow
4:35 PM 6.8 °F -7.8 °F 1.4 °F 79% 29.99 in 9.0 mi ENE 10.4 mph 17.3 mph 0.02 in Snow Light Snow
4:55 PM 6.8 °F -6.9 °F 1.4 °F 79% 30.00 in 9.0 mi NE 9.2 mph 18.4 mph 0.04 in Snow Light Snow
5:15 PM 6.8 °F -9.3 °F 1.4 °F 79% 30.00 in 8.0 mi NE 12.7 mph 16.1 mph 0.01 in Snow Light Snow
5:35 PM 6.8 °F -5.9 °F 1.4 °F 79% 30.01 in 10.0 mi ENE 8.1 mph 18.4 mph 0.02 in Snow Light Snow
5:55 PM 5.0 °F -10.0 °F -0.4 °F 78% 30.02 in 7.0 mi NE 10.4 mph - 0.03 in Snow Light Snow
6:15 PM 5.0 °F -9.1 °F -0.4 °F 78% 30.03 in 8.0 mi NE 9.2 mph - 0.01 in Snow Light Snow
6:35 PM 5.0 °F -11.6 °F -0.4 °F 78% 30.04 in 10.0 mi NNE 12.7 mph 17.3 mph 0.03 in Snow Light Snow
6:55 PM 5.0 °F -9.1 °F -0.4 °F 78% 30.05 in 9.0 mi NE 9.2 mph - 0.06 in Snow Light Snow
7:15 PM 3.2 °F -11.3 °F -0.4 °F 85% 30.06 in 10.0 mi NNE 9.2 mph - 0.01 in Snow Light Snow
7:35 PM 3.2 °F -11.3 °F -0.4 °F 85% 30.07 in 10.0 mi NE 9.2 mph - 0.02 in Snow Light Snow
7:55 PM 1.4 °F -12.5 °F -2.2 °F 85% 30.07 in 10.0 mi NE 8.1 mph - 0.03 in Snow Light Snow
8:15 PM -0.4 °F -12.0 °F -2.2 °F 92% 30.08 in 10.0 mi NNE 5.8 mph - N/A Snow Light Snow
8:35 PM -0.4 °F -14.7 °F -2.2 °F 92% 30.09 in 10.0 mi NE 8.1 mph - N/A   Mostly Cloudy
8:55 PM -0.4 °F -13.4 °F -4.0 °F 85% 30.09 in 10.0 mi NNE 6.9 mph - N/A   Mostly Cloudy
9:15 PM -0.4 °F -12.0 °F -4.0 °F 85% 30.10 in 10.0 mi NNE 5.8 mph - N/A   Partly Cloudy
9:35 PM -0.4 °F -12.0 °F -4.0 °F 85% 30.11 in 10.0 mi NNE 5.8 mph - N/A   Scattered Clouds
9:55 PM -2.2 °F - -5.8 °F 85% 30.11 in 10.0 mi Calm Calm - N/A   Mostly Cloudy
10:15 PM -2.2 °F -10.4 °F -5.8 °F 85% 30.13 in 10.0 mi NNE 3.5 mph - N/A   Mostly Cloudy
10:35 PM -7.6 °F -16.5 °F -11.2 °F 84% 30.13 in 10.0 mi North 3.5 mph - N/A   Mostly Cloudy
10:55 PM -7.6 °F -16.5 °F -11.2 °F 84% 30.13 in 10.0 mi NNE 3.5 mph - N/A   Mostly Cloudy
11:15 PM -5.8 °F -14.5 °F -9.4 °F 84% 30.13 in 10.0 mi NNE 3.5 mph - N/A   Mostly Cloudy
11:35 PM -5.8 °F - -9.4 °F 84% 30.13 in 10.0 mi Calm Calm - N/A   Scattered Clouds
11:55 PM -7.6 °F - -11.2 °F 84% 30.13 in 10.0 mi Calm Calm - N/A   Scattered Clouds